Regional Weather Roundup
Issued by NWS

Home | Current Version | Previous Version | Text Only | Print | Product List | Glossary On
Versions: 1 2 3 4 5 6 7 8 9 10 11 12 13 14 15 16 17 18 19 20 21 22 23 24 25 26 27 28 29 30 31 32 33 34 35 36 37 38 39 40 41 42 43 44 45 46 47 48 49 50
060
ASUS44 KLIX 172313
RWRLA
LOUISIANA WEATHER ROUNDUP
NATIONAL WEATHER SERVICE NEW ORLEANS LA
500 PM CST FRI NOV 17 2017

NOTE: "FAIR" INDICATES FEW OR NO CLOUDS BELOW 12,000 FEET WITH NO
      SIGNIFICANT WEATHER AND/OR OBSTRUCTIONS TO VISIBILITY.
      SKY/WX - SKY CONDITION AND SIGNIFICANT WEATHER.
      TMP - AIR TEMPERATURE.    DP   - DEWPOINT TEMPERATURE.
      RH  - RELATIVE HUMIDITY.  PRES - PRESSURE.
      HX  - HEAT INDEX.         WCI  - WIND CHILL INDEX.

*  THESE STATIONS ARE NOT NWS OR FAA STATIONS AND ARE NOT UNDER
   NWS QUALITY CONTROL.

LAZ040-048-061>063-065-066-069-180000-
SOUTHEAST LOUISIANA

CITY           SKY/WX    TMP DP  RH WIND       PRES   REMARKS
N.O. INTL ARPT PTCLDY    73  62  68 S9        30.02F
N.O. LAKEFRONT CLEAR     73  58  59 S10       30.03S
N.O. DOWNTOWN* FAIR      74  60  61 S10       30.03F
RESERVE*       FAIR      73  60  63 S10       30.01S
SLIDELL        CLEAR     70  62  76 SE8       30.02F
BATON ROUGE    PTCLDY    74  58  57 S12       29.99S
BOOTHVILLE     CLEAR     72  66  81 CALM      30.05R
BELLE CHASSE   PTCLDY    70  61  73 S8        30.03S
BOGALUSA*      NOT AVBL
GALLIANO*      CLEAR     71  59  65 SE3       30.04S
NEW ROADS*     FAIR      73  60  64 S7        29.99F
GONZALES*      FAIR      73  59  62 SW5       30.00S
HAMMOND*       CLEAR     68  59  73 SE6       30.01S
HOUMA*         CLEAR     70  63  78 S9        30.02F
PORT FOURCHON* NOT AVBL

$$

LAZ041-044-053-054-180000-
SOUTHWEST LOUISIANA

CITY           SKY/WX    TMP DP  RH WIND       PRES   REMARKS
LAKE CHARLES   PTCLDY    75  67  76 S8        29.96F
LAFAYETTE      MOCLDY    71  63  75 S9        30.00S
PATTERSON      CLEAR     72  63  73 S7        30.02F
SALT POINT       N/A     71  66  84 SE3       30.00F
NEW IBERIA     MOCLDY    72  61  68 S10       30.01S
CHENAULT AIRPK MOCLDY    75  66  73 S8        29.97F

$$

LAZ027-028-180000-
CENTRAL LOUISIANA

CITY           SKY/WX    TMP DP  RH WIND       PRES   REMARKS
FORT POLK      PTCLDY    75  66  73 S10       29.92F
ALEXANDRIA INT PTCLDY    75  64  68 S14       29.91F
ALEXANDRIA     PTCLDY    74  63  68 S9        29.93F

$$

LAZ001-002-180000-
NORTHWEST LOUISIANA

CITY           SKY/WX    TMP DP  RH WIND       PRES   REMARKS
SHREVEPORT     MOCLDY    77  65  66 S14       29.83F
BARKSDALE AFB  PTCLDY    77  63  63 S12       29.84F
DTN SHREVEPORT PTCLDY    78  64  61 S13       29.84F

$$

LAZ014-016-180000-
NORTHEAST LOUISIANA

CITY           SKY/WX    TMP DP  RH WIND       PRES   REMARKS
MONROE         CLEAR     75  62  64 S8        29.90F
TALLULAH       LGT RAIN  74  55  51 S9        29.94F

$$





USA.gov is the U.S. government's official web portal to all federal, state and local government web resources and services.